EW8955 Weather Reports


Display with metric or nautical units.
time (UTC)temp
F
wind
direction
speed
MPH
gust
MPH
rain 1hr
in
rain 24hr
in
rain mn
in
humidity
%
barometer
mb
20260504045428 39 235 1.0 1.0 0.00 0.00 0.00 89 1015.0
20260504044929 39 234 1.0 2.0 0.00 0.00 0.00 90 1015.0
20260504044428 39 204 1.0 1.0 0.00 0.00 0.00 90 1015.0
20260504043930 39 245 1.0 1.0 0.00 0.00 0.00 90 1015.0
20260504043428 39 208 1.0 1.0 0.00 0.00 0.00 90 1015.0
20260504042928 39 222 2.0 2.0 0.00 0.00 0.00 90 1015.0
20260504042428 39 228 1.0 1.0 0.00 0.00 0.00 90 1015.0
20260504041928 39 207 1.0 2.0 0.00 0.00 0.00 90 1015.0
20260504041428 39 229 1.0 2.0 0.00 0.00 0.00 89 1015.0
20260504040928 39 213 2.0 2.0 0.00 0.00 0.00 89 1015.0
20260504040428 39 289 0.0 1.0 0.00 0.00 0.00 89 1015.0
20260504035928 39 202 1.0 2.0 0.00 0.00 0.00 89 1015.0
20260504035428 39 224 1.0 1.0 0.00 0.00 0.00 89 1015.0
20260504034929 39 224 1.0 2.0 0.00 0.00 0.00 89 1015.0
20260504034428 39 218 1.0 2.0 0.00 0.00 0.00 89 1015.0
20260504033928 39 216 1.0 1.0 0.00 0.00 0.00 88 1015.0
20260504033428 39 232 1.0 1.0 0.00 0.00 0.00 88 1015.0
20260504032928 40 220 0.0 1.0 0.00 0.00 0.00 87 1015.0
20260504032428 40 232 1.0 2.0 0.00 0.00 0.00 87 1015.0
20260504031929 40 220 1.0 1.0 0.00 0.00 0.00 86 1015.0
20260504031429 40 212 1.0 2.0 0.00 0.00 0.00 86 1015.0
20260504030928 40 231 1.0 2.0 0.00 0.00 0.00 86 1015.0
20260504030430 40 213 1.0 2.0 0.00 0.00 0.00 86 1015.0
20260504025928 40 252 0.0 1.0 0.00 0.00 0.00 85 1015.0
20260504025429 40 218 0.0 0.0 0.00 0.00 0.00 84 1015.0
20260504024928 40 224 1.0 2.0 0.00 0.00 0.00 84 1015.0
20260504024429 41 215 0.0 1.0 0.00 0.00 0.00 83 1015.0
20260504023929 41 228 1.0 1.0 0.00 0.00 0.00 83 1015.0
20260504023428 41 234 1.0 2.0 0.00 0.00 0.00 82 1015.0
20260504022929 41 217 1.0 2.0 0.00 0.00 0.00 82 1015.0
20260504022429 42 219 0.0 1.0 0.00 0.00 0.00 81 1015.0
20260504021929 42 253 0.0 1.0 0.00 0.00 0.00 81 1015.0
20260504021429 42 213 1.0 1.0 0.00 0.00 0.00 79 1015.0
20260504020928 42 234 0.0 1.0 0.00 0.00 0.00 79 1015.0
20260504020428 42 217 1.0 2.0 0.00 0.00 0.00 80 1015.0
20260504015929 43 218 1.0 1.0 0.00 0.00 0.00 78 1015.0
20260504015428 43 214 1.0 2.0 0.00 0.00 0.00 77 1015.0
20260504014928 43 222 1.0 1.0 0.00 0.00 0.00 77 1015.0
20260504014428 44 214 1.0 2.0 0.00 0.00 0.00 76 1015.0
20260504013928 44 211 1.0 2.0 0.00 0.00 0.00 75 1015.0
20260504013428 44 200 1.0 2.0 0.00 0.00 0.00 74 1015.0
20260504012928 45 216 2.0 2.0 0.00 0.00 0.00 74 1015.0
20260504012428 45 201 1.0 1.0 0.00 0.00 0.00 74 1015.0
20260504011929 45 209 1.0 1.0 0.00 0.00 0.00 73 1015.0
20260504011429 46 207 2.0 2.0 0.00 0.00 0.00 71 1015.0
20260504010928 46 210 1.0 2.0 0.00 0.00 0.00 71 1015.0
20260504010428 47 207 2.0 2.0 0.00 0.00 0.00 69 1015.0
20260504005929 47 213 2.0 2.0 0.00 0.00 0.00 66 1015.0
20260504005428 47 235 1.0 1.0 0.00 0.00 0.00 63 1015.0
20260504004928 48 218 2.0 2.0 0.00 0.00 0.00 62 1015.0
20260504004428 48 206 2.0 2.0 0.00 0.00 0.00 63 1015.0
20260504003928 49 224 2.0 2.0 0.00 0.00 0.00 63 1015.0
20260504003428 49 226 2.0 2.0 0.00 0.00 0.00 63 1015.0
20260504002928 50 223 2.0 2.0 0.00 0.00 0.00 62 1015.0
20260504002428 51 221 1.0 1.0 0.00 0.00 0.00 60 1015.0
20260504001928 51 231 1.0 2.0 0.00 0.00 0.00 58 1015.0
20260504001428 52 228 1.0 2.0 0.00 0.00 0.00 57 1015.0
20260504000928 53 199 1.0 2.0 0.00 0.00 0.00 54 1014.0
20260504000430 53 203 2.0 2.0 0.00 0.00 0.00 52 1014.0
20260503235928 54 218 2.0 3.0 0.00 0.00 0.00 53 1014.0
20260503235428 54 218 2.0 3.0 0.00 0.00 0.00 50 1014.0
20260503234928 55 200 1.0 2.0 0.00 0.00 0.00 53 1014.0
20260503234428 55 217 2.0 2.0 0.00 0.00 0.00 46 1014.0
20260503233929 55 214 2.0 2.0 0.00 0.00 0.00 47 1014.0
20260503233429 56 224 2.0 5.0 0.00 0.00 0.00 46 1014.0
20260503232928 56 203 1.0 2.0 0.00 0.00 0.00 44 1014.0
20260503232428 56 239 2.0 6.0 0.00 0.00 0.00 42 1014.0
20260503231928 56 222 2.0 6.0 0.00 0.00 0.00 42 1014.0
20260503231428 56 176 2.0 2.0 0.00 0.00 0.00 43 1014.0
20260503230928 57 234 2.0 6.0 0.00 0.00 0.00 42 1014.0
20260503230428 57 215 2.0 2.0 0.00 0.00 0.00 43 1014.0
20260503225928 57 202 2.0 3.0 0.00 0.00 0.00 45 1014.0
20260503225428 57 223 3.0 7.0 0.00 0.00 0.00 41 1014.0
20260503224928 57 218 3.0 9.0 0.00 0.00 0.00 42 1014.0
20260503224428 57 221 2.0 3.0 0.00 0.00 0.00 45 1014.0
20260503223928 57 211 2.0 2.0 0.00 0.00 0.00 44 1014.0
20260503223428 57 230 4.0 7.0 0.00 0.00 0.00 40 1014.0
20260503222929 58 236 7.0 13.0 0.00 0.00 0.00 40 1014.0
20260503222429 58 221 4.0 6.0 0.00 0.00 0.00 42 1014.0
20260503220928 58 231 5.0 9.0 0.00 0.00 0.00 41 1014.0
20260503215928 58 237 4.0 8.0 0.00 0.00 0.00 41 1014.0
20260503215429 58 234 7.0 11.0 0.00 0.00 0.00 42 1014.0
20260503214928 58 233 7.0 12.0 0.00 0.00 0.00 40 1014.0
20260503214428 58 228 6.0 9.0 0.00 0.00 0.00 41 1014.0
20260503213928 58 224 6.0 16.0 0.00 0.00 0.00 39 1014.0
20260503213428 58 238 6.0 13.0 0.00 0.00 0.00 40 1014.0
20260503212928 58 232 5.0 12.0 0.00 0.00 0.00 41 1014.0
20260503212428 58 223 5.0 10.0 0.00 0.00 0.00 39 1014.0
20260503211928 58 237 8.0 12.0 0.00 0.00 0.00 39 1014.0
20260503211428 58 239 8.0 13.0 0.00 0.00 0.00 40 1014.0
20260503210929 59 228 4.0 8.0 0.00 0.00 0.00 40 1014.0
20260503210428 59 222 5.0 11.0 0.00 0.00 0.00 39 1014.0
20260503205928 59 251 6.0 11.0 0.00 0.00 0.00 39 1014.0
20260503205428 59 249 7.0 13.0 0.00 0.00 0.00 39 1014.0
20260503204928 59 238 4.0 10.0 0.00 0.00 0.00 42 1014.0
20260503204428 59 244 6.0 9.0 0.00 0.00 0.00 38 1014.0
20260503203928 58 223 6.0 12.0 0.00 0.00 0.00 40 1014.0
20260503203428 58 249 8.0 12.0 0.00 0.00 0.00 41 1014.0
20260503202928 59 228 6.0 11.0 0.00 0.00 0.00 38 1014.0
20260503202428 59 294 5.0 8.0 0.00 0.00 0.00 42 1014.0
20260503201928 58 269 6.0 10.0 0.00 0.00 0.00 41 1014.0
20260503201428 58 268 8.0 13.0 0.00 0.00 0.00 41 1014.0
20260503200928 58 264 7.0 14.0 0.00 0.00 0.00 44 1014.0
20260503200428 58 236 7.0 11.0 0.00 0.00 0.00 39 1015.0
20260503195928 58 205 3.0 6.0 0.00 0.00 0.00 45 1014.0
20260503195429 59 241 5.0 9.0 0.00 0.00 0.00 43 1015.0
20260503194928 59 250 6.0 9.0 0.00 0.00 0.00 42 1014.0
20260503194428 59 286 4.0 10.0 0.00 0.00 0.00 44 1014.0
20260503193929 58 223 3.0 4.0 0.00 0.00 0.00 44 1015.0
20260503193428 58 227 4.0 5.0 0.00 0.00 0.00 40 1015.0
20260503192928 59 225 5.0 16.0 0.00 0.00 0.00 40 1014.0
20260503192428 58 224 4.0 11.0 0.00 0.00 0.00 41 1015.0
20260503191928 58 229 9.0 17.0 0.00 0.00 0.00 40 1015.0
20260503191429 57 228 14.0 24.0 0.00 0.00 0.00 42 1015.0
20260503190928 56 228 10.0 20.0 0.00 0.00 0.00 45 1015.0
20260503190429 57 224 5.0 17.0 0.00 0.00 0.00 43 1016.0
20260503185928 57 227 4.0 6.0 0.00 0.00 0.00 40 1015.0
20260503184928 57 226 4.0 8.0 0.00 0.00 0.00 44 1015.0
20260503184428 58 234 7.0 13.0 0.00 0.00 0.00 42 1015.0
20260503183428 57 218 3.0 8.0 0.00 0.00 0.00 44 1015.0
20260503182928 56 223 5.0 8.0 0.00 0.00 0.00 42 1015.0
20260503182428 56 215 7.0 15.0 0.00 0.00 0.00 44 1015.0
20260503181930 57 218 4.0 7.0 0.00 0.00 0.00 42 1016.0
20260503181428 57 224 5.0 12.0 0.00 0.00 0.00 42 1015.0
20260503180929 56 222 4.0 7.0 0.00 0.00 0.00 47 1015.0
20260503180429 55 257 4.0 8.0 0.00 0.00 0.00 42 1016.0
20260503175928 56 253 6.0 12.0 0.00 0.00 0.00 42 1016.0
20260503175428 56 224 4.0 8.0 0.00 0.00 0.00 44 1016.0
20260503174928 55 238 6.0 11.0 0.00 0.00 0.00 42 1016.0
20260503174428 55 224 4.0 7.0 0.00 0.00 0.00 44 1016.0
20260503173929 55 271 6.0 14.0 0.00 0.00 0.00 47 1016.0
20260503173429 55 264 6.0 10.0 0.00 0.00 0.00 47 1015.0
20260503172928 54 216 6.0 8.0 0.00 0.00 0.00 46 1016.0
20260503172429 53 223 4.0 6.0 0.00 0.00 0.00 43 1016.0
20260503171928 54 222 6.0 8.0 0.00 0.00 0.00 43 1017.0
20260503171428 54 291 3.0 5.0 0.00 0.00 0.00 45 1016.0
20260503170929 54 330 6.0 10.0 0.00 0.00 0.00 42 1016.0
20260503170428 54 249 5.0 7.0 0.00 0.00 0.00 42 1017.0
20260503150930 50 228 4.0 7.0 0.00 0.00 0.00 48 1018.0
20260503150429 50 236 4.0 7.0 0.00 0.00 0.00 46 1018.0
20260503130928 44 242 3.0 4.0 0.00 0.00 0.00 65 1018.0
20260503130428 44 241 2.0 4.0 0.00 0.00 0.00 66 1018.0
20260503110428 33 219 2.0 2.0 0.00 0.00 0.00 98 1017.0
20260503090428 35 262 0.0 1.0 0.00 0.00 0.00 95 1017.0
20260503081429 35 264 1.0 1.0 0.00 0.00 0.00 98 1016.0
20260503080928 35 200 0.0 1.0 0.00 0.00 0.00 98 1016.0
20260503080428 35 194 0.0 0.0 0.00 0.00 0.00 98 1016.0
20260503072928 34 230 1.0 1.0 0.00 0.00 0.00 98 1016.0
20260503072428 34 0 0.0 0.0 0.00 0.00 0.00 98 1016.0
20260503071928 34 236 1.0 1.0 0.00 0.00 0.00 97 1016.0
20260503071428 34 225 0.0 1.0 0.00 0.00 0.00 98 1016.0
20260503070930 33 212 0.0 1.0 0.00 0.00 0.00 98 1016.0
20260503070428 33 208 0.0 0.0 0.00 0.00 0.00 98 1016.0
20260503054928 33 225 1.0 1.0 0.00 0.00 0.00 95 1017.0
20260503054428 33 240 0.0 0.0 0.00 0.00 0.00 94 1017.0
20260503053929 34 223 1.0 2.0 0.00 0.00 0.00 94 1017.0
20260503053428 34 216 1.0 2.0 0.00 0.00 0.00 94 1017.0
20260503052928 34 205 1.0 2.0 0.00 0.00 0.00 94 1017.0
20260503052428 34 212 1.0 1.0 0.00 0.00 0.00 93 1017.0
20260503051928 35 210 2.0 2.0 0.00 0.00 0.00 93 1017.0
20260503051429 35 220 2.0 2.0 0.00 0.00 0.00 93 1017.0
20260503050929 35 213 1.0 1.0 0.00 0.00 0.00 92 1017.0
20260503050428 35 230 1.0 2.0 0.00 0.00 0.00 91 1017.0
20260503045928 36 207 1.0 2.0 0.00 0.00 0.00 91 1017.0